(424965) = 2009 AM15

Discovered at Siding Spring on 2009-01-06 by Siding Spring Survey.

Orbit

Orbit type: Aten
Near-Earth Object

Note: WebGL enabled browser required.

epoch2023-02-25.0
epoch JD2460000.5
perihelion date2022-08-20.30574
perihelion JD2459811.80574
argument of perihelion (°)131.48603
ascending node (°)166.17502
inclination (°)28.87258
eccentricity0.4869959
perihelion distance (AU)0.4168256
Tisserand w.r.t. Jupiter7.0
ΔV w.r.t. Earth (km/sec)14.2
semimajor axis (AU)0.8125190
mean anomaly (°)253.92896
mean daily motion (°/day)1.34571640
aphelion distance (AU)1.208
period (years)0.73
P-vector [x]0.48649127
P-vector [y]-0.87354749
P-vector [z]0.01552516
Q-vector [x]0.86603285
Q-vector [y]0.47980719
Q-vector [z]-0.14061354
absolute magnitude18.76
phase slope0.15
uncertainty0
referenceMPEC 2023-E73
observations used203
oppositions6
arc length (days)5179
first opposition used2009
last opposition used2023
residual rms (arc-secs)0.66
perturbers coarse indicatorM-v
perturbers precise indicator003Ek
first observation date used2009-01-06.0
last observation date used2023-03-13.0
computer nameMPCLINUX
JD of orbit computation2457039.609782
perihelion JD uncertainty (days)1.4039E-05
argument of perihelion uncertainty (°)7.2480E-06
ascending node uncertainty (°)7.4254E-06
inclination uncertainty (°)7.8801E-06
eccentricity uncertainty 7.6318E-08
perihelion distance uncertainty (AU)6.2842E-08
Minimum Orbit Intersection Distances (in AU)
for orbit epoch: 2460000.5, reference: E2023-E56
Mercury0.10151
Venus0.0844
Earth0.05238
Mars0.63087
Jupiter4.14031
Saturn8.00074
Uranus17.3816
Neptune29.0723

Observations

212 total observations over interval: 2009 01 06.61786 – 2023 03 13.168108
These data are available for download (format description).

Date (UT) J2000 RA J2000 Dec Magn Location Ref
2009 01 06.61786 06 37 40.62 -58 01 09.7 19.1 V E12 – Siding Spring Survey MPS 271948
2009 01 06.62950 06 37 37.09 -58 00 49.1 19.4 V E12 – Siding Spring Survey MPS 271948
2009 01 06.64117 06 37 33.52 -58 00 28.6 19.1 V E12 – Siding Spring Survey MPS 271948
2009 01 06.65282 06 37 30.14 -58 00 08.1 19.6 V E12 – Siding Spring Survey MPS 271948
2009 01 06.68337 06 37 20.97 -57 59 13.4 19.1 R E12 – Siding Spring Survey MPS 271948
2009 01 08.56711 06 28 29.90 -57 01 38.1 19.3 R E12 – Siding Spring Survey MPS 271948
2009 01 08.57183 06 28 28.46 -57 01 29.3 19.2 R E12 – Siding Spring Survey MPS 271948
2009 01 08.71473 06 27 47.87 -56 56 46.8 19.4 R E12 – Siding Spring Survey MPS 271948
2009 01 13.47970 06 07 38.89 -54 04 46.0 19.0 R E12 – Siding Spring Survey MPS 272872
2009 01 13.48342 06 07 37.99 -54 04 37.3 19.1 R E12 – Siding Spring Survey MPS 272872
2009 01 14.42865 06 04 01.50 -53 26 23.9 19.0 R E12 – Siding Spring Survey MPS 272872
2009 01 14.43152 06 04 00.84 -53 26 16.8 19.2 R E12 – Siding Spring Survey MPS 272872
2009 01 16.58556 05 56 14.28 -51 54 33.0 19.4 R E12 – Siding Spring Survey MPS 272872
2009 01 16.58906 05 56 13.56 -51 54 23.7 19.0 R E12 – Siding Spring Survey MPS 272872
2009 01 18.51617 05 49 52.935 -50 27 06.21 19.5 R E12 – Siding Spring Survey MPS 272872
2009 01 18.52231 05 49 51.69 -50 26 49.1 19.5 R E12 – Siding Spring Survey MPS 272872
2009 01 19.63889 05 46 24.71 -49 34 02.0 18.2 R E12 – Siding Spring Survey MPS 272872
2009 01 19.64243 05 46 24.02 -49 33 51.2 19.2 R E12 – Siding Spring Survey MPS 272872
2009 01 25.60642 05 31 00.94 -44 29 11.4 19.2 V E12 – Siding Spring Survey MPS 272872
2009 01 25.61927 05 30 59.14 -44 28 28.8 19.2 V E12 – Siding Spring Survey MPS 272872
2009 02 01.48723 05 18 53.12 -38 01 04.8 19.2 R E12 – Siding Spring Survey MPS 272872
2009 02 02.50653 05 17 32.10 -37 01 19.1 19.8 V E12 – Siding Spring Survey MPS 272872
2009 02 02.51352 05 17 31.48 -37 00 53.9 19.8 V E12 – Siding Spring Survey MPS 272872
2009 02 02.52053 05 17 30.87 -37 00 28.8 19.4 V E12 – Siding Spring Survey MPS 272872
2009 02 19.20049 05 08 04.87 -20 23 20.3 19.1 R 448 – Desert Moon Observatory, Las Cruces MPS 276587
2009 02 19.21469 05 08 04.67 -20 22 29.3 19.3 R 448 – Desert Moon Observatory, Las Cruces MPS 276587
2009 02 19.22564 05 08 04.62 -20 21 48.6 20.1 R 448 – Desert Moon Observatory, Las Cruces MPS 276587
2009 02 19.44407 05 08 05.29 -20 08 42.6 19.5 R E12 – Siding Spring Survey MPS 276587
2009 02 19.48304 05 08 05.09 -20 06 24.9 19.4 R E12 – Siding Spring Survey MPS 276587
2009 02 28.43353 05 10 25.16 -11 35 59.0 19.8 V E12 – Siding Spring Survey MPS 278771
2009 02 28.43821 05 10 25.25 -11 35 43.5 19.9 V E12 – Siding Spring Survey MPS 278771
2009 03 14.40195 05 20 24.25 +00 21 46.0 19.9 R E12 – Siding Spring Survey MPS 280425
2009 03 14.40658 05 20 24.49 +00 21 59.6 19.7 R E12 – Siding Spring Survey MPS 280425
2009 03 15.06104 05 21 00.86 +00 52 49.6 20.3 V H55 – Astronomical Research Observatory, Charleston MPS 280425
2009 03 15.06271 05 21 00.95 +00 52 54.5 20.1 V H55 – Astronomical Research Observatory, Charleston MPS 280425
2009 03 15.06559 05 21 01.14 +00 53 02.7 20.3 V H55 – Astronomical Research Observatory, Charleston MPS 280425
2009 04 04.08213 05 43 09.45 +15 10 57.4 20.7 V H55 – Astronomical Research Observatory, Charleston MPS 283582
2009 04 04.09113 05 43 10.11 +15 11 18.5 20.1 V H55 – Astronomical Research Observatory, Charleston MPS 283582
2009 11 09.649338 11 12 44.685 -11 20 07.60 20.9 R 568 – Maunakea MPS 307372
2009 12 09.618997 12 47 05.816 -16 20 57.92 21.1 R 568 – Maunakea MPS 307372
2009 12 09.620303 12 47 06.097 -16 20 58.55 21.2 R 568 – Maunakea MPS 307372
2009 12 09.622663 12 47 06.618 -16 20 59.76 21.1 R 568 – Maunakea MPS 307372
2011 11 01.32833 09 44 28.23 -25 54 10.2 20.7 V 807 – Cerro Tololo Observatory, La Serena MPS 398304
2011 11 01.33917 09 44 28.82 -25 54 23.4 20.7 V 807 – Cerro Tololo Observatory, La Serena MPS 398304
2011 11 05.31965 09 48 20.17 -27 11 51.2 20.6 V 807 – Cerro Tololo Observatory, La Serena MPS 398304
2011 11 05.32789 09 48 20.66 -27 12 01.1   807 – Cerro Tololo Observatory, La Serena MPS 398304
2011 11 05.33608 09 48 21.13 -27 12 11.1 20.5 V 807 – Cerro Tololo Observatory, La Serena MPS 398304
2012 01 07.34644 10 00 19.74 -46 42 57.0 20.1 V 807 – Cerro Tololo Observatory, La Serena MPS 407183
2012 01 07.35050 10 00 19.30 -46 43 00.9 20.1 V 807 – Cerro Tololo Observatory, La Serena MPS 407183
2012 01 07.35454 10 00 18.86 -46 43 04.7 19.9 V 807 – Cerro Tololo Observatory, La Serena MPS 407183
2012 01 07.35859 10 00 18.42 -46 43 08.4 20.1 V 807 – Cerro Tololo Observatory, La Serena MPS 407183
2012 01 07.36265 10 00 18.00 -46 43 12.1 20.0 V 807 – Cerro Tololo Observatory, La Serena MPS 407183
2012 01 07.36669 10 00 17.54 -46 43 15.8 19.8 V 807 – Cerro Tololo Observatory, La Serena MPS 407183
2012 01 11.34935 09 52 45.85 -47 43 21.9 19.5 V 807 – Cerro Tololo Observatory, La Serena MPS 407183
2012 01 11.35337 09 52 45.30 -47 43 25.3 19.4 V 807 – Cerro Tololo Observatory, La Serena MPS 407183
2012 01 11.35742 09 52 44.74 -47 43 28.7 19.6 V 807 – Cerro Tololo Observatory, La Serena MPS 407183
2012 01 11.36147 09 52 44.20 -47 43 31.9 19.6 V 807 – Cerro Tololo Observatory, La Serena MPS 407183
2012 01 11.36551 09 52 43.64 -47 43 35.3 19.8 V 807 – Cerro Tololo Observatory, La Serena MPS 407183
2012 01 11.36955 09 52 43.09 -47 43 38.8 19.7 V 807 – Cerro Tololo Observatory, La Serena MPS 407183
2012 02 09.02200 07 46 59.80 -45 41 50.2 18.6 V 807 – Cerro Tololo Observatory, La Serena MPS 411609
2012 02 09.02752 07 46 57.66 -45 41 37.9 18.7 V 807 – Cerro Tololo Observatory, La Serena MPS 411609
2012 02 09.03308 07 46 55.50 -45 41 24.9 18.0 V 807 – Cerro Tololo Observatory, La Serena MPS 411609
2012 02 09.03821 07 46 53.46 -45 41 13.5 18.5 V 807 – Cerro Tololo Observatory, La Serena MPS 411609
2012 02 09.04265 07 46 51.73 -45 41 03.3 18.6 V 807 – Cerro Tololo Observatory, La Serena MPS 411609
2012 02 21.46450 06 29 18.10 -32 06 47.7 18.0 V E12 – Siding Spring Survey MPS 418528
2012 02 21.47394 06 29 14.69 -32 05 55.2 18.1 V E12 – Siding Spring Survey MPS 418528
2012 02 21.48357 06 29 11.20 -32 05 01.2 18.1 V E12 – Siding Spring Survey MPS 418528
2012 02 24.78496 06 10 40.66 -26 38 58.9   204 – Schiaparelli Observatory MPS 414262
2012 02 24.79552 06 10 37.11 -26 37 52.4 17.6 R 204 – Schiaparelli Observatory MPS 414262
2012 03 06.033142 05 21 34.00 -06 53 05.6 18.6 V H21 – Astronomical Research Observatory, Westfield MPS 416169
2012 03 06.036003 05 21 33.24 -06 52 44.9 18.8 V H21 – Astronomical Research Observatory, Westfield MPS 416169
2012 03 06.038861 05 21 32.48 -06 52 24.3 18.7 V H21 – Astronomical Research Observatory, Westfield MPS 416169
2012 03 06.041713 05 21 31.71 -06 52 03.8 18.7 V H21 – Astronomical Research Observatory, Westfield MPS 416169
2012 03 06.044500 05 21 30.97 -06 51 43.7 18.6 V H21 – Astronomical Research Observatory, Westfield MPS 416169
2012 03 06.047270 05 21 30.23 -06 51 23.6 18.6 V H21 – Astronomical Research Observatory, Westfield MPS 416169
2012 03 06.049582 05 21 29.62 -06 51 06.8 18.6 V H21 – Astronomical Research Observatory, Westfield MPS 416169
2012 03 15.87075 04 43 07.78 +11 34 36.5 18.1 R B67 – Sternwarte Mirasteilas, Falera MPS 416169
2012 03 15.87532 04 43 06.79 +11 35 04.5 17.9 R B67 – Sternwarte Mirasteilas, Falera MPS 416169
2012 03 15.87989 04 43 05.74 +11 35 31.2 18.3 R B67 – Sternwarte Mirasteilas, Falera MPS 416169
2012 03 15.88446 04 43 04.67 +11 36 00.0 18.1 R B67 – Sternwarte Mirasteilas, Falera MPS 416169
2012 03 16.13509 04 42 09.61 +12 01 30.3 18.6 V 703 – Catalina Sky Survey MPS 416169
2012 03 16.14282 04 42 07.84 +12 02 16.1 18.3 V 703 – Catalina Sky Survey MPS 416169
2012 03 16.15768 04 42 04.42 +12 03 46.8 18.4 V 703 – Catalina Sky Survey MPS 416169
2015 01 02.34455 11 54 49.70 -32 24 25.4 20.3 V 807 – Cerro Tololo Observatory, La Serena MPS 560044
2015 01 02.34849 11 54 50.19 -32 24 29.1 20.2 V 807 – Cerro Tololo Observatory, La Serena MPS 560044
2015 01 02.35259 11 54 50.73 -32 24 33.0 20.5 V 807 – Cerro Tololo Observatory, La Serena MPS 560044
